Location: Harburg
(48.7667°N, 10.6667°E)
Time: 08:45:22
(UTC+00:00)

ATLAS 3B R/B - Pass Details

Date: 18 September 2020
Orbit: 1016 x 1179 km, 63.8° (Epoch: 04 October)

Event Time Altitude Azimuth Distance (km) Brightness Sun altitude
Rises 21:21:58 0° 318° (NW) 3,833 6.6 -34.5°
Reaches altitude 10° 21:24:34 10° 315° (NW) 2,897 5.7 -34.8°
Enters shadow 21:30:03 55° 283° (WNW) 1,298 3.2 -35.3°
